Weather History for KLAR - April, 2014

Change the Weather History Date:

Tuesday, April 15, 2014

  Actual Average Record
Temperature  
Mean Temperature 38 °F 38 °F  
Max Temperature 52 °F 51 °F 75 °F (1962)
Min Temperature 24 °F 24 °F 2 °F (1972)
Degree Days  
Heating Degree Days 27 28  
Month to date heating degree days 438 440  
Since 1 July heating degree days 7479 7675  
Cooling Degree Days 0 0  
Month to date cooling degree days 0 0  
Year to date cooling degree days 0 0  
Moisture  
Dew Point 20 °F    
Average Humidity 45    
Maximum Humidity 63    
Minimum Humidity 26    
Precipitation  
Precipitation 0.02 in 0.04 in 0.36 in (2000)
Month to date precipitation 0.13 0.45  
Year to date precipitation 1.86 1.64  
Sea Level Pressure  
Sea Level Pressure 29.83 in    
Wind  
Wind Speed 19 mph (WSW)    
Max Wind Speed 36 mph    
Max Gust Speed 47 mph    
Visibility 9 miles    
Events Snow    
T = Trace of Precipitation, MM = Missing Value Source: NWS Daily Summary

Daily Weather History Graph

Daily Weather History Graph

Search for Another Location

Airport or City:

Trip Planner

Search our weather history database for the weather conditions in past years. The results will help you decide how hot, cold, wet, or windy it might be!

Date:

Astronomy

Apr. 15, 2014 Rise Set
Actual Time 6:23 AM MDT 7:42 PM MDT
Civil Twilight 5:54 AM MDT 8:11 PM MDT
Nautical Twilight 5:20 AM MDT 8:46 PM MDT
Astronomical Twilight 4:43 AM MDT 9:22 PM MDT
Moon 8:27 PM MDT (4/15) 6:32 AM MDT (4/15)
Length of Visible Light 14h 17m
Length of Day
13h 19m
Full, 100% of the Moon is Illuminated
Apr 15
Full
Apr 22
Last Quarter
Apr 29
New
May 6
First Quarter
May 14
Full

Hourly Weather History & Observations

Time (MDT) Temp. Windchill Dew Point Humidity Pressure Visibility Wind Dir Wind Speed Gust Speed Precip Events Conditions
12:53 AM 26.1 °F 12.3 °F 14.0 °F 60% 30.14 in 10.0 mi WSW 19.6 mph - N/A   Clear
1:53 AM 27.0 °F 14.7 °F 15.1 °F 61% 30.11 in 10.0 mi WSW 16.1 mph - N/A   Clear
2:53 AM 26.1 °F 12.3 °F 15.1 °F 63% 30.09 in 10.0 mi WSW 19.6 mph - N/A   Clear
3:53 AM 26.1 °F 18.4 °F 12.9 °F 58% 30.08 in 10.0 mi SW 6.9 mph - N/A   Clear
4:53 AM 27.0 °F 16.7 °F 14.0 °F 58% 30.04 in 10.0 mi South 11.5 mph - N/A   Clear
5:53 AM 28.9 °F 20.4 °F 12.9 °F 51% 30.00 in 10.0 mi South 9.2 mph - N/A   Clear
6:53 AM 28.9 °F 16.9 °F 12.9 °F 51% 29.99 in 10.0 mi WSW 17.3 mph - N/A   Clear
7:53 AM 32.0 °F 17.4 °F 16.0 °F 52% 29.96 in 10.0 mi SW 31.1 mph 39.1 mph N/A   Clear
8:53 AM 34.0 °F 21.3 °F 19.0 °F 54% 29.96 in 10.0 mi WSW 25.3 mph - N/A   Clear
9:53 AM 37.0 °F 25.6 °F 19.0 °F 48% 29.94 in 10.0 mi SW 24.2 mph 32.2 mph N/A   Mostly Cloudy
10:53 AM 42.1 °F 33.1 °F 19.9 °F 41% 29.90 in 10.0 mi SSW 20.7 mph 27.6 mph N/A   Mostly Cloudy
11:53 AM 43.0 °F 34.2 °F 19.9 °F 40% 29.86 in 10.0 mi WSW 20.7 mph 25.3 mph N/A   Clear
12:53 PM 44.1 °F 35.9 °F 19.0 °F 37% 29.84 in 10.0 mi WSW 19.6 mph - N/A   Scattered Clouds
1:53 PM 46.0 °F 39.0 °F 19.9 °F 35% 29.77 in 10.0 mi WSW 17.3 mph - N/A   Clear
2:53 PM 46.9 °F - 17.1 °F 30% 29.73 in 10.0 mi SW 25.3 mph 34.5 mph N/A   Clear
3:53 PM 48.0 °F - 15.1 °F 27% 29.70 in 10.0 mi WSW 24.2 mph 32.2 mph N/A   Clear
4:00 PM 48.9 °F - 15.1 °F 26% 29.78 in 10.0 mi WSW 23.0 mph 32.2 mph N/A   Scattered Clouds
4:53 PM 48.0 °F - 18.0 °F 30% 29.67 in 10.0 mi WSW 18.4 mph - N/A   Clear
5:53 PM 48.9 °F - 18.0 °F 29% 29.64 in 10.0 mi SW 25.3 mph - N/A   Clear
6:53 PM 45.0 °F 38.2 °F 21.0 °F 39% 29.65 in 10.0 mi SW 15.0 mph 25.3 mph N/A   Scattered Clouds
7:53 PM 43.0 °F 36.4 °F 21.0 °F 42% 29.64 in 10.0 mi West 12.7 mph 24.2 mph N/A   Mostly Cloudy
8:53 PM 43.0 °F 33.1 °F 21.0 °F 42% 29.63 in 10.0 mi West 26.5 mph 34.5 mph N/A   Clear
9:53 PM 41.0 °F 30.9 °F 24.1 °F 51% 29.64 in 10.0 mi West 24.2 mph 32.2 mph N/A   Scattered Clouds
10:53 PM 37.0 °F 27.4 °F 28.9 °F 73% 29.64 in 5.0 mi West 17.3 mph 31.1 mph 0.00 in Snow Light Snow
11:12 PM 37.0 °F 26.7 °F 28.9 °F 73% 29.76 in 10.0 mi West 19.6 mph 25.3 mph 0.00 in   Overcast
11:22 PM 37.0 °F 28.5 °F 28.9 °F 73% 29.76 in 10.0 mi WNW 13.8 mph 26.5 mph 0.00 in   Overcast
11:30 PM 35.1 °F 26.4 °F 30.0 °F 82% 29.76 in 10.0 mi WNW 12.7 mph - 0.00 in   Overcast
11:45 PM 34.0 °F 23.4 °F 30.9 °F 89% 29.76 in 2.5 mi West 17.3 mph - 0.00 in Snow Light Snow
11:51 PM 33.8 °F 23.9 °F 30.2 °F 87% 29.76 in 1.0 mi West 15.0 mph - 0.00 in Snow Light Snow
11:53 PM 33.1 °F 23.4 °F 30.9 °F 92% 29.67 in 0.8 mi West 13.8 mph - 0.00 in Snow Light Snow